Regional Weather Roundup
Issued by NWS

Home | Current Version | Previous Version | Text Only | Print | Product List | Glossary On
Versions: 1 2 3 4 5 6 7 8 9 10 11 12 13 14 15 16 17 18 19 20 21 22 23 24 25 26 27 28 29 30 31 32 33 34 35 36 37 38 39 40 41 42 43 44 45 46 47 48 49 50
570
ASUS43 KLMK 061610
RWRKY
KENTUCKY REGIONAL WEATHER ROUNDUP
NATIONAL WEATHER SERVICE LOUISVILLE KY
1100 AM EST SAT FEB 06 2016

NOTE "FAIR" INDICATES FEW OR NO CLOUDS BELOW 12,000 FEET
WITH NO SIGNIFICANT WEATHER AND/OR OBSTRUCTIONS TO VISIBILITY.

KYZ001>023-026-027-061>063-070>075-061700-
WESTERN AND SOUTH CENTRAL KENTUCKY

CITY           SKY/WX    TMP DP  RH WIND       PRES   REMARKS
PADUCAH        SUNNY     45  26  47 W9        30.37R
HENDERSON      SUNNY     43  27  52 W6        30.36R
OWENSBORO      MOSUNNY   42  29  60 S8        30.37S
HOPKINSVILLE   MOSUNNY   46  24  43 SW6       30.38S
BOWLING GREEN  MOSUNNY   44  24  45 SW10      30.39F
GLASGOW        SUNNY     43  23  44 SW5       30.38F
$$

KYZ024-025-028>034-038-045-046-053-061700-
NORTH CENTRAL KENTUCKY

CITY           SKY/WX    TMP DP  RH WIND       PRES   REMARKS
LOUISVILLE/SDF PTSUNNY   38  23  55 SW3       30.37S
LOUISVILLE/LOU SUNNY     37  23  56 S3        30.37S
FORT KNOX      MOSUNNY   42  25  49 SW8       30.34S
$$

KYZ035>037-039>044-047>052-055>060-089>105-061700-
NORTHEAST KENTUCKY

CITY           SKY/WX    TMP DP  RH WIND       PRES   REMARKS
LEXINGTON      SUNNY     41  23  48 SW8       30.35F
COVINGTON      MOSUNNY   36  25  64 SW6       30.34S WCI  31
FRANKFORT      SUNNY     39  21  48 SW6       30.35S WCI  35
$$

KYZ054-064>069-076>088-106>120-061700-
SOUTHEAST KENTUCKY

CITY           SKY/WX    TMP DP  RH WIND       PRES   REMARKS
JACKSON        SUNNY     42  20  41 VRB3      30.37S
LONDON         SUNNY     40  20  44 SW6       30.38F
SOMERSET       SUNNY     41  19  42 SW5       30.41S
MIDDLESBORO    SUNNY     35  24  62 CALM      30.41S
MONTICELLO     SUNNY     46  20  35 W12       30.41S
$$





USA.gov is the U.S. government's official web portal to all federal, state and local government web resources and services.